Location: Courcelles
(49.2596°N, 1.7419°E)
Time: 00:32:57
(UTC+00:00)

Cosmos 1627 Rocket - Pass Details

Date: 17 November 2025
Orbit: 949 x 1003 km, 82.9° (Epoch: 05 December)

Event Time Altitude Azimuth Distance (km) Brightness Sun altitude
Rises 18:19:48 0° 352° (N) 3,635 7.5 -21.1°
Reaches altitude 10° 18:22:21 10° 357° (N) 2,687 6.8 -21.5°
Maximum altitude 18:28:25 59° 77° (ENE) 1,093 4.4 -22.5°
Drops below altitude 10° 18:34:29 10° 156° (SSE) 2,691 6.6 -23.5°
Sets 18:37:01 0° 160° (SSE) 3,641 7.3 -23.9°
